Hourly Weather Koudougou

Today, 30 September, Wednesday

Time Temperature Precipitation Wind Pressure Humidity
00:00 +28°C° 0 mm 3 mps 732 mmHg 75%
01:00 +28°C° 0 mm 3 mps 732 mmHg 76%
02:00 +27°C° 0 mm 3 mps 731 mmHg 77%
03:00 +27°C° 0 mm 3 mps 731 mmHg 78%
04:00 +27°C° 0 mm 3 mps 731 mmHg 79%
05:00 +27°C° 0 mm 2 mps 732 mmHg 80%
06:00 +26°C° 0 mm 2 mps 732 mmHg 80%
07:00 +28°C° 0 mm 3 mps 732 mmHg 74%
08:00 +29°C° 0 mm 4 mps 733 mmHg 69%
09:00 +30°C° 0 mm 4 mps 733 mmHg 63%
10:00 +33°C° 0 mm 4 mps 733 mmHg 58%
11:00 +34°C° 0 mm 4 mps 732 mmHg 53%
12:00 +36°C° 0 mm 3 mps 732 mmHg 48%
13:00 +36°C° 0 mm 3 mps 731 mmHg 47%
14:00 +36°C° 0 mm 2 mps 731 mmHg 46%
15:00 +36°C° 0 mm 2 mps 730 mmHg 44%
16:00 +35°C° 0 mm 3 mps 730 mmHg 49%
17:00 +34°C° 0 mm 3 mps 730 mmHg 54%
18:00 +33°C° 0 mm 4 mps 730 mmHg 60%
19:00 +32°C° 0 mm 4 mps 731 mmHg 62%
20:00 +30°C° 0 mm 4 mps 731 mmHg 65%
21:00 +29°C° 0 mm 4 mps 731 mmHg 68%
22:00 +28°C° 0.5 mm 4 mps 731 mmHg 72%
23:00 +28°C° 0.5 mm 4 mps 731 mmHg 75%

Tomorrow, 1 October, Thursday

Time Temperature Precipitation Wind Pressure Humidity
00:00 +27°C° 0.5 mm 4 mps 731 mmHg 79%
01:00 +27°C° 0 mm 4 mps 731 mmHg 80%
02:00 +27°C° 0 mm 5 mps 731 mmHg 80%
03:00 +27°C° 0 mm 5 mps 730 mmHg 81%
04:00 +27°C° 0 mm 4 mps 730 mmHg 81%
05:00 +27°C° 0 mm 3 mps 730 mmHg 81%
06:00 +27°C° 0 mm 2 mps 731 mmHg 81%
07:00 +28°C° 0 mm 3 mps 731 mmHg 76%
08:00 +29°C° 0 mm 3 mps 731 mmHg 71%
09:00 +30°C° 0 mm 3 mps 731 mmHg 66%
10:00 +31°C° 0 mm 3 mps 731 mmHg 61%
11:00 +33°C° 0 mm 3 mps 731 mmHg 55%
12:00 +35°C° 0 mm 3 mps 731 mmHg 50%
13:00 +35°C° 0 mm 3 mps 730 mmHg 49%
14:00 +36°C° 0 mm 3 mps 730 mmHg 47%
15:00 +36°C° 0 mm 3 mps 729 mmHg 46%
16:00 +35°C° 0.1 mm 3 mps 729 mmHg 52%
17:00 +33°C° 0.1 mm 3 mps 729 mmHg 57%
18:00 +32°C° 0.1 mm 4 mps 729 mmHg 63%
19:00 +30°C° 0 mm 4 mps 730 mmHg 65%
20:00 +30°C° 0 mm 4 mps 730 mmHg 68%
21:00 +29°C° 0 mm 4 mps 731 mmHg 71%
22:00 +28°C° 0.1 mm 4 mps 731 mmHg 74%
23:00 +28°C° 0.1 mm 4 mps 731 mmHg 76%

Day after tomorrow, 2 October, Friday

Time Temperature Precipitation Wind Pressure Humidity
00:00 +27°C° 0.1 mm 4 mps 731 mmHg 79%
01:00 +27°C° 0 mm 4 mps 730 mmHg 81%
02:00 +27°C° 0 mm 4 mps 730 mmHg 82%
03:00 +26°C° 0 mm 4 mps 730 mmHg 84%
04:00 +26°C° 0.3 mm 3 mps 730 mmHg 86%
05:00 +25°C° 0.3 mm 3 mps 730 mmHg 87%
06:00 +25°C° 0.3 mm 3 mps 730 mmHg 89%
07:00 +26°C° 0.1 mm 3 mps 731 mmHg 83%
08:00 +27°C° 0.1 mm 4 mps 731 mmHg 76%
09:00 +29°C° 0.1 mm 5 mps 732 mmHg 70%
10:00 +30°C° 0 mm 5 mps 731 mmHg 63%
11:00 +33°C° 0 mm 4 mps 731 mmHg 57%
12:00 +35°C° 0 mm 4 mps 731 mmHg 50%
13:00 +35°C° 0 mm 4 mps 730 mmHg 48%
14:00 +36°C° 0 mm 3 mps 730 mmHg 45%
15:00 +36°C° 0 mm 3 mps 729 mmHg 43%
16:00 +35°C° 0 mm 3 mps 729 mmHg 47%
17:00 +34°C° 0 mm 3 mps 729 mmHg 51%
18:00 +33°C° 0 mm 3 mps 729 mmHg 55%
19:00 +31°C° 0 mm 3 mps 730 mmHg 59%
20:00 +30°C° 0 mm 3 mps 730 mmHg 62%
21:00 +30°C° 0 mm 4 mps 731 mmHg 65%
22:00 +29°C° 0 mm 4 mps 731 mmHg 68%
23:00 +29°C° 0 mm 4 mps 731 mmHg 71%

3 October, Saturday

Time Temperature Precipitation Wind Pressure Humidity
00:00 +28°C° 0 mm 4 mps 731 mmHg 74%
01:00 +28°C° 0 mm 4 mps 731 mmHg 76%
02:00 +27°C° 0 mm 3 mps 731 mmHg 77%
03:00 +27°C° 0 mm 3 mps 731 mmHg 79%
04:00 +27°C° 0 mm 3 mps 731 mmHg 80%
05:00 +26°C° 0 mm 3 mps 731 mmHg 82%
06:00 +26°C° 0 mm 3 mps 731 mmHg 83%
07:00 +28°C° 0 mm 3 mps 732 mmHg 76%
08:00 +29°C° 0 mm 4 mps 732 mmHg 70%
09:00 +32°C° 0 mm 4 mps 733 mmHg 64%
10:00 +33°C° 0 mm 4 mps 732 mmHg 58%
11:00 +34°C° 0 mm 4 mps 732 mmHg 53%
12:00 +35°C° 0 mm 3 mps 732 mmHg 48%
13:00 +35°C° 0.1 mm 3 mps 731 mmHg 48%
14:00 +35°C° 0.1 mm 3 mps 730 mmHg 48%
15:00 +35°C° 0.1 mm 3 mps 730 mmHg 48%
16:00 +34°C° 0.6 mm 3 mps 730 mmHg 54%
17:00 +33°C° 0.6 mm 3 mps 730 mmHg 59%
18:00 +31°C° 0.6 mm 3 mps 730 mmHg 64%
19:00 +30°C° 0.1 mm 3 mps 731 mmHg 68%
20:00 +29°C° 0.1 mm 2 mps 731 mmHg 71%
21:00 +29°C° 0.1 mm 2 mps 732 mmHg 74%
22:00 +28°C° 0 mm 2 mps 732 mmHg 76%
23:00 +28°C° 0 mm 2 mps 732 mmHg 78%

4 October, Sunday

Time Temperature Precipitation Wind Pressure Humidity
00:00 +28°C° 0 mm 1 mps 732 mmHg 79%
01:00 +27°C° 0 mm 1 mps 732 mmHg 80%
02:00 +27°C° 0 mm 2 mps 731 mmHg 81%
03:00 +27°C° 0 mm 2 mps 731 mmHg 81%
04:00 +27°C° 0 mm 1 mps 731 mmHg 82%
05:00 +27°C° 0 mm 1 mps 732 mmHg 82%
06:00 +26°C° 0 mm 1 mps 732 mmHg 83%
07:00 +28°C° 1.3 mm 2 mps 732 mmHg 77%
08:00 +29°C° 1.3 mm 3 mps 733 mmHg 70%
09:00 +30°C° 1.3 mm 3 mps 734 mmHg 64%
10:00 +30°C° 0.8 mm 3 mps 733 mmHg 67%
11:00 +29°C° 0.8 mm 4 mps 733 mmHg 69%
12:00 +28°C° 0.8 mm 4 mps 732 mmHg 72%
13:00 +29°C° 0.1 mm 3 mps 732 mmHg 67%
14:00 +30°C° 0.1 mm 3 mps 732 mmHg 61%
15:00 +32°C° 0.1 mm 2 mps 731 mmHg 56%
16:00 +31°C° 1.1 mm 2 mps 731 mmHg 62%
17:00 +29°C° 1.1 mm 2 mps 731 mmHg 68%
18:00 +28°C° 1.1 mm 2 mps 731 mmHg 74%
19:00 +28°C° 0 mm 2 mps 732 mmHg 76%
20:00 +28°C° 0 mm 1 mps 732 mmHg 78%
21:00 +27°C° 0 mm 1 mps 733 mmHg 81%
22:00 +27°C° 0 mm 1 mps 733 mmHg 81%
23:00 +26°C° 0 mm 2 mps 733 mmHg 80%

5 October, Monday

Time Temperature Precipitation Wind Pressure Humidity
00:00 +26°C° 0 mm 2 mps 733 mmHg 80%
01:00 +26°C° 0 mm 2 mps 733 mmHg 82%
02:00 +25°C° 0 mm 2 mps 732 mmHg 84%
03:00 +25°C° 0 mm 2 mps 732 mmHg 85%
04:00 +25°C° 0 mm 2 mps 732 mmHg 87%
05:00 +25°C° 0 mm 2 mps 733 mmHg 88%
06:00 +24°C° 0 mm 2 mps 733 mmHg 89%
07:00 +26°C° 0 mm 2 mps 733 mmHg 82%
08:00 +28°C° 0 mm 3 mps 734 mmHg 74%
09:00 +29°C° 0 mm 3 mps 734 mmHg 67%
10:00 +31°C° 0 mm 3 mps 734 mmHg 61%
11:00 +33°C° 0 mm 3 mps 733 mmHg 55%
12:00 +35°C° 0 mm 3 mps 733 mmHg 48%
13:00 +36°C° 0 mm 3 mps 732 mmHg 46%
14:00 +36°C° 0 mm 2 mps 732 mmHg 44%
15:00 +37°C° 0 mm 2 mps 731 mmHg 42%
16:00 +36°C° 0 mm 2 mps 731 mmHg 46%
17:00 +34°C° 0 mm 1 mps 731 mmHg 50%
18:00 +33°C° 0 mm 1 mps 731 mmHg 54%
19:00 +32°C° 0 mm 1 mps 731 mmHg 55%
20:00 +32°C° 0 mm 1 mps 732 mmHg 55%
21:00 +31°C° 0 mm 2 mps 732 mmHg 56%
22:00 +30°C° 0 mm 2 mps 732 mmHg 59%
23:00 +30°C° 0 mm 2 mps 732 mmHg 62%
Show more